Location: Colonia Mina de C?rbuni
(46.1667°N, 22.7167°E)
Time: 20:56:06
(UTC+00:00)

Tiros 1 - Pass Details

Date: 17 April 2024
Orbit: 624 x 657 km, 48.4° (Epoch: 20 May)

Event Time Altitude Azimuth Distance (km) Brightness Sun altitude
Rises 23:20:05 0° 224° (SW) 2,920 - -31.8°
Reaches altitude 10° 23:22:30 10° 218° (SW) 2,009 - -31.6°
Maximum altitude 23:26:50 41° 148° (SSE) 911 - -31.4°
Exits shadow 23:30:30 14° 81° (E) 1,765 9.6 -31.2°
Drops below altitude 10° 23:31:09 10° 78° (ENE) 2,001 10.0 -31.2°
Sets 23:33:33 0° 71° (ENE) 2,908 11.0 -31.1°
